#timestamp,LO_Frequency,Hit,StdDev 
1654020015.5,286047003.9,N
1654020035.4,286047001.3,N
1654020055.2,286047001.8,N
1654020075.0,286047004.0,N
1654020075.9,286047004.0,N
1654020095.8,286047004.4,N
1654020115.6,286047004.0,N
1654020135.4,286047004.2,N
1654020155.3,286047003.0,N
1654020175.1,286047003.1,N
1654020195.9,286047003.2,N
1654020215.7,286047003.1,N
1654020235.5,286047003.7,N
1654020255.4,286047003.3,N
1654020275.2,286047003.0,N
1654020295.0,286047005.3,Y
1654020296.0,286047005.3,P
1654020315.8,286047000.1,N
1654020335.6,286046999.9,N
1654020355.5,286047000.1,N
1654020375.3,286047002.4,N
1654020395.1,286047002.4,N
1654020415.9,286047002.8,N
1654020435.7,286047002.7,N
1654020455.5,286047002.8,N
1654020475.4,286047011.9,Y
1654020495.2,286047000.7,P
1654020515.1,286046999.9,N
1654020516.0,286046999.9,N
1654020535.8,286047002.6,N
1654020555.6,286047002.0,N
1654020575.5,286047002.4,N
1654020595.3,286047000.9,N
1654020615.2,286046998.9,N
1654020635.9,286046998.6,N
1654020655.7,286046999.5,N
1654020675.6,286046996.9,N
1654020695.4,286046997.1,N
1654020715.2,286046996.7,N
1654020735.1,286046996.9,N
1654020736.0,286046996.9,N
1654020755.8,286046997.6,N
1654020775.7,286046997.7,N
1654020795.5,286046997.7,N
1654020815.3,286046999.6,N
1654020835.2,286046999.5,N
1654020855.0,286046999.2,N
1654020855.9,286046999.2,N
1654020875.7,286046997.1,N
1654020895.6,286046997.8,N
1654020915.4,286046996.7,N
1654020935.3,286046997.4,N
1654020955.1,286046997.8,N
1654020956.0,286046997.8,N
1654020975.8,286046995.1,N
1654020995.7,286046997.0,N
1654021015.5,286046999.6,N
1654021035.4,286046999.4,N
1654021055.2,286046999.3,N
1654021075.0,286046996.5,N
1654021075.9,286046996.5,N
1654021095.8,286046996.5,N
1654021115.6,286046998.3,N
1654021135.4,286046999.2,N
1654021155.3,286046996.9,N
1654021175.1,286046997.7,N
1654021195.9,286046996.7,N
1654021215.7,286046997.8,N
1654021235.5,286046995.1,Y
1654021255.4,286046996.6,P
1654021275.2,286046997.1,P
1654021295.0,286046997.0,P
1654021296.0,286046997.0,Y
1654021315.8,286047000.0,P
1654021335.6,286046999.1,N
1654021355.5,286046998.8,N
1654021375.3,286046999.5,N
1654021395.1,286046998.4,N
1654021415.9,286046999.0,N
1654021435.7,286047001.0,N
1654021455.6,286047000.9,N
1654021475.4,286047000.2,N
1654021495.2,286046999.8,N
1654021515.1,286047002.8,N
1654021516.0,286047002.8,N
1654021535.8,286047002.2,N
1654021555.6,286047001.8,N
1654021575.5,286047002.5,N
1654021595.3,286047001.5,N
1654021615.2,286047001.6,N
1654021635.9,286047001.9,N
1654021655.7,286047000.1,N
1654021675.6,286047002.8,N
1654021695.4,286047002.5,N
1654021715.2,286047002.0,N
1654021735.1,286047001.8,N
1654021736.0,286047001.8,N
1654021755.8,286046999.9,N
1654021775.7,286047000.3,N
1654021795.5,286047002.2,N
1654021815.3,286047002.2,N
1654021835.2,286047000.1,N
1654021855.0,286047002.3,N
1654021855.9,286047002.3,N
1654021875.8,286047002.1,N
1654021895.6,286047002.1,N
1654021915.4,286047002.6,N
1654021935.3,286047001.4,N
1654021955.1,286047002.0,N
1654021975.8,286047001.6,N
1654021995.7,286047002.1,N
1654022015.5,286047003.5,Y
1654022035.4,286047007.5,P
1654022055.2,286047008.1,N
1654022075.0,286047008.6,N
1654022075.9,286047008.6,Y
1654022095.8,286047000.0,P
1654022115.6,286047000.5,N
1654022135.5,286046999.9,N
1654022155.3,286046999.4,N
1654022175.1,286046997.2,N
1654022195.9,286046998.0,N
1654022215.7,286046997.9,N
1654022235.5,286046997.2,N
1654022255.4,286046997.3,N
1654022275.2,286046997.9,N
1654022295.1,286046996.3,N
1654022296.0,286046996.3,N
1654022315.8,286046995.3,N
1654022335.6,286046995.5,N
1654022355.5,286046995.1,N
1654022375.3,286046993.6,N
1654022395.1,286046993.7,N
1654022415.9,286046994.6,N
1654022435.7,286046996.0,N
1654022455.6,286046991.7,N
1654022475.4,286046994.2,N
1654022495.2,286046994.0,N
1654022515.1,286046992.8,N
1654022516.0,286046992.8,N
1654022535.8,286046992.3,N
1654022555.7,286046993.0,N
1654022575.5,286046992.8,N
1654022595.3,286046992.4,N
1654022615.2,286046992.2,N
1654022635.0,286046994.3,N
1654022635.9,286046994.3,N
1654022655.7,286046994.6,N
1654022675.6,286046994.1,N
1654022695.4,286046994.6,N
1654022715.3,286046994.6,N
1654022735.1,286046993.6,Y
1654022736.0,286046993.6,P
1654022755.8,286046999.0,N
1654022775.7,286046998.9,N
1654022795.5,286046999.2,N
1654022815.4,286046997.5,N
1654022835.2,286046995.6,N
1654022855.0,286046995.0,N
1654022855.9,286046995.0,N
1654022875.8,286046997.4,N
1654022895.6,286046997.9,N
1654022915.4,286046996.0,N
1654022935.3,286046995.4,N
1654022955.1,286046996.3,N
1654022975.9,286046993.7,Y
1654022995.7,286046998.3,P
1654023015.5,286047000.7,N
1654023035.4,286046998.1,N
1654023055.2,286047000.9,N
1654023075.0,286046998.6,N
1654023075.9,286046998.6,N
1654023095.8,286047001.2,N
1654023115.6,286046998.2,N
1654023135.5,286046998.4,N
1654023155.3,286047001.2,N
1654023175.1,286047003.3,N
1654023195.9,286047001.6,N
1654023215.7,286047002.6,N
1654023235.5,286047000.4,N
1654023255.4,286046999.8,N
1654023275.2,286047000.5,N
1654023295.1,286046999.2,N
1654023296.0,286046999.2,N
1654023315.8,286046998.6,N
1654023335.6,286047001.0,N
1654023355.5,286047000.4,N
1654023375.3,286047001.9,N
1654023395.1,286047001.5,N
1654023415.9,286047002.7,N
1654023435.7,286046998.3,N
1654023455.6,286046998.8,N
1654023475.4,286046999.6,N
1654023495.2,286046998.6,N
1654023515.1,286047000.7,N
1654023516.0,286047000.7,N
1654023535.8,286047001.0,N
1654023555.7,286047000.9,N
1654023575.5,286047002.5,N
1654023595.3,286047002.4,N
